DELTA 1 DEB

Satellite information

Favourite Embed

Satellite Type and Status

DEBRISIN ORBIT

Key statistics

Satellite DELTA 1 DEB at a glance.

Uptime

17353

Days in orbit

Revolutions

≈ 14.3

Per day

Orbit

SSO

Sun Synchronous Orbit

Inclination

98.8

Latest

Satellite identification and parameters

Extended collection of information and parameters for DELTA 1 DEB.

Object identification

Identified? True

Debris? True

Object name: DELTA 1 DEB

International designator: 1978-026CT

Object number (NORAD): 12250

Object ID (CCSDS): 12250

Country: UNITED STATES OF AMERICA (US)

Current information (Y/N): Y

RCS size: SMALL

Orbital parameters

Period: 100.713 minutes

Inclination: 98.8272 deg

SMA: 7170.498 km

Apoapsis: 808.811 km

Periapsis: 775.916 km

RAAN: 274.7798 deg

Eccentricy: 0.00229379

Argument of periapsis: 185.3694 deg

Mean anomaly: 237.4991 deg

Mean motion: 14.29811402 rev/day

Mean motion (dot): 0.00001301 rev/day2

B* drag term: 0.00052237837 1/REarth

Two-line elements (TLE)

Creation date: Sept. 6, 2025, 10:23 a.m.

Reference frame: TEME

Reference center: EARTH

Epoch: Sept. 6, 2025, 1:48 a.m. UTC

TLE line 0: 0 DELTA 1 DEB

TLE line 1: 1 12250U 78026CT 25249.07518080 .00001301 00000-0 52238-3 0 9992

TLE line 2: 2 12250 98.8272 274.7798 0022938 185.3694 237.4991 14.29811402307302

Live tracking on map

Real-time ground track for satellite DELTA 1 DEB.

In-orbit conjunctions

A list of the most updated potential collisions computed for object DELTA 1 DEB.

Target Orbit TCA Probability of collision Miss distance Type
RESURS O1 DEB SSO 2024-11-19 11:57:12 0.0001500713 97.0 (m) DEBRIS

Associated space launch

Earth observation satellite

DELTA 1 DEB was lifted into orbit during the mission ‘Delta 2910 | Landsat 3’, on board a Delta 2910 space rocket.

The launch took place on March 5, 1978, 5:54 p.m. from Space Launch Complex 2W.

For more information about the launch, click the button.

Launch to space Delta 2910 | Landsat 3
Delta 2910 | Landsat 3

Agency: N/A

Status: Launch Successful

Launch date: March 5, 1978, 5:54 p.m. UTC

Rocket: Delta 2910

Launch pad: Space Launch Complex 2W

Location: Vandenberg SFB, CA, USA

...

Latest news about this satellite

There are no fresh news available about this satellite. Check back as we update our databases every day.


Newsletter sign-up

Weekly statistics, charts and insights to help you stay on top of the space industry.